Location: Unspecified
(0.0000°N, 0.0000°E)
Time: 04:15:59
(UTC+00:00)

COSMOS 2484 - Visible Passes

Search period start: 03 June 2023 00:00
Search period end: 13 June 2023 00:00
Orbit: 1475 x 1514 km, 82.5° (Epoch: 02 June)

Date Brightness Start Highest point End Pass type
(mag) Time Alt. Az. Time Alt. Az. Time Alt. Az.
03 Jun ? 19:55:42 10° S 20:04:25 82° W 20:13:11 10° N visible
04 Jun ? 19:06:58 10° SSE 19:15:14 48° E 19:23:30 10° NNE visible
04 Jun ? 21:05:37 10° SW 21:11:39 21° W 21:17:45 10° NW visible
05 Jun ? 18:20:00 10° SE 18:26:03 21° E 18:32:06 10° NE visible
05 Jun ? 20:14:13 10° SSW 20:22:28 48° W 20:30:46 10° NNW visible
06 Jun ? 19:24:33 10° S 19:33:17 82° E 19:42:03 10° N visible
07 Jun ? 18:36:13 10° SSE 18:44:06 38° E 18:51:59 10° NNE visible
07 Jun ? 20:33:35 10° SW 20:40:31 27° W 20:47:30 10° NNW visible
08 Jun ? 19:42:48 10° SSW 19:51:20 60° W 19:59:54 10° N visible
09 Jun ? 18:53:30 10° S 19:02:09 67° E 19:10:48 10° NNE visible
09 Jun ? 20:54:48 10° WSW 20:58:35 13° W 21:02:22 10° WNW visible
10 Jun ? 20:01:48 10° SSW 20:09:22 34° W 20:17:00 10° NNW visible
11 Jun ? 19:11:29 10° S 19:20:11 73° W 19:28:56 10° N visible
12 Jun ? 18:22:33 10° SSE 18:31:01 54° E 18:39:28 10° NNE visible
12 Jun ? 20:22:01 10° SW 20:27:26 18° W 20:32:53 10° NW visible
